TimeMST,TemperatureF,Dew PointF,Humidity,Sea Level PressureIn,VisibilityMPH,Wind Direction,Wind SpeedMPH,Gust SpeedMPH,PrecipitationIn,Events,Conditions,WindDirDegrees,DateUTC
12:53 AM,55.0,10.0,17,30.05,10.0,SSE,3.5,-,N/A,,Clear,150,2014-05-02 07:53:00
1:53 AM,55.9,10.9,17,30.04,10.0,SW,4.6,-,N/A,,Clear,230,2014-05-02 08:53:00
2:53 AM,55.9,10.0,16,30.04,10.0,West,3.5,-,N/A,,Clear,270,2014-05-02 09:53:00
3:53 AM,52.0,12.0,20,30.05,10.0,Calm,Calm,-,N/A,,Clear,0,2014-05-02 10:53:00
4:53 AM,50.0,12.0,22,30.05,10.0,SW,3.5,-,N/A,,Clear,220,2014-05-02 11:53:00
5:53 AM,50.0,12.9,23,30.07,10.0,WSW,3.5,-,N/A,,Clear,250,2014-05-02 12:53:00
6:53 AM,55.9,12.0,18,30.06,10.0,Calm,Calm,-,N/A,,Clear,0,2014-05-02 13:53:00
7:53 AM,59.0,14.0,17,30.08,10.0,Variable,3.5,-,N/A,,Clear,0,2014-05-02 14:53:00
8:53 AM,62.1,15.1,16,30.08,10.0,NNE,3.5,-,N/A,,Clear,20,2014-05-02 15:53:00
9:53 AM,64.9,14.0,14,30.06,10.0,NE,4.6,-,N/A,,Clear,40,2014-05-02 16:53:00
10:53 AM,69.8,14.0,12,30.18,10.0,Variable,3.5,-,N/A,,Clear,0,2014-05-02 17:53:00
11:53 AM,75.0,16.0,11,30.01,10.0,NE,5.8,-,N/A,,Clear,50,2014-05-02 18:53:00
12:53 PM,77.0,19.0,11,29.98,10.0,Calm,Calm,-,N/A,,Clear,0,2014-05-02 19:53:00
1:53 PM,80.1,18.0,10,29.94,10.0,SE,4.6,-,N/A,,Clear,130,2014-05-02 20:53:00
2:53 PM,80.1,18.0,10,29.91,10.0,Calm,Calm,-,N/A,,Clear,0,2014-05-02 21:53:00
3:53 PM,84.0,19.0,9,29.88,10.0,Variable,5.8,21.9,N/A,,Clear,0,2014-05-02 22:53:00
4:53 PM,82.4,19.4,10,30.01,10.0,East,6.9,-,N/A,,Clear,100,2014-05-02 23:53:00
5:53 PM,81.0,18.0,10,29.86,10.0,SE,3.5,-,N/A,,Clear,140,2014-05-03 00:53:00
6:53 PM,78.1,19.0,11,29.85,10.0,SE,3.5,-,N/A,,Clear,140,2014-05-03 01:53:00
7:53 PM,75.0,19.0,12,29.86,10.0,Calm,Calm,-,N/A,,Clear,0,2014-05-03 02:53:00
8:53 PM,71.1,21.9,16,29.87,10.0,SW,5.8,-,N/A,,Clear,220,2014-05-03 03:53:00
9:53 PM,70.0,19.9,15,29.87,10.0,SSW,5.8,-,N/A,,Clear,210,2014-05-03 04:53:00
10:53 PM,70.0,19.0,14,29.87,10.0,SW,4.6,-,N/A,,Clear,220,2014-05-03 05:53:00
11:53 PM,66.9,18.0,15,29.87,10.0,Calm,Calm,-,N/A,,Clear,0,2014-05-03 06:53:00